Regional Weather Roundup
Issued by NWS Nashville, TN

Home | Current Version | Previous Version | Text Only | Print | Product List | Glossary On
Versions: 1 2 3 4 5 6 7 8 9 10 11 12 13 14 15 16 17 18 19 20 21 22 23 24 25 26 27
000
ASUS44 KOHX 031810
RWROHX
MIDDLE TENNESSEE HOURLY WEATHER ROUNDUP
NATIONAL WEATHER SERVICE NASHVILLE TN
1200 PM CST SAT DEC 03 2016

NOTE: "FAIR" INDICATES FEW OR NO CLOUDS BELOW 12,000 FEET WITH
NO SIGNIFICANT WEATHER AND/OR OBSTRUCTIONS TO VISIBILITY.

* THESE REPORTS ARE NOT UNDER NWS QUALITY CONTROL AND MAY NOT
  REPORT WEATHER SUCH AS PRECIPITATION AND FOG.


TNZ005>011-023>034-057-059-062>066-078-080-031900
...NORTHERN MIDDLE TENNESSEE...

CITY           SKY/WX    TMP DP  RH WIND       PRES   REMARKS
CLARKSVILLE    CLOUDY    42  31  64 NE5       30.35F
CROSSVILLE     CLOUDY    40  29  64 VRB3      30.28F
LEBANON        CLOUDY    42  31  65 CALM      30.31F
NASHVILLE      CLOUDY    45  30  55 VRB3      30.34F
PORTLAND       SUNNY     41  32  70 NE5       30.33F
SMYRNA         CLOUDY    44  31  60 NE7       30.34F
SPRINGFIELD    SUNNY     41  32  70 NE5       30.33F
WEST NASHVILLE SUNNY     43  30  61 N6        30.34F
$$
TNZ056-058-060-061-075>077-079-093>097-031900
...SOUTHERN MIDDLE TENNESSEE...

CITY           SKY/WX    TMP DP  RH WIND       PRES   REMARKS
COLUMBIA       SUNNY     45  37  76 NE6       30.30S
FAYETTEVILLE   SUNNY     46  32  57 NE5       30.29S
MCMINNVILLE    SUNNY     43  32  65 N7        30.28F
SHELBYVILLE    SUNNY     45  36  70 NE5       30.31F
TULLAHOMA      SUNNY     43  30  61 N6        30.28F
WINCHESTER     SUNNY     45  34  65 N3        30.28F
$$


...KEY TO REMARKS...
VSB - VISIBILITY IN MILES
WCI - WIND CHILL INDEX
HX  - HEAT INDEX





USA.gov is the U.S. government's official web portal to all federal, state and local government web resources and services.